Location: Battery Park City
(40.7115°N, 74.0163°W)
Time: 17:08:02
(UTC+00:00)

Cosmos 1174 - Pass Details

Date: 08 December 2019
Orbit: 376 x 1144 km, 66.1° (Epoch: 29 January)

Event Time Altitude Azimuth Distance (km) Brightness Sun altitude
Rises 23:43:46 0° 216° (SW) 3,396 8.5 -24.9°
Reaches altitude 10° 23:46:30 10° 220° (SW) 2,332 7.6 -25.4°
Maximum altitude 23:51:43 63° 301° (WNW) 733 4.5 -26.4°
Enters shadow 23:51:56 62° 318° (NW) 733 4.4 -26.4°
